STARLINK-32304, 60738

Orbit data source: Space-Track

STARLINK-32304, 60738 is a payload satellite owned by SpaceX/Seattle (US) in LEO that was launched on Wed, 28 Aug 2024 UTC via an FALCON 9 launch vehicle from the Air Force Eastern Test Range (AFETR). Payload-class satellites include a variety of spacecraft equipped with specific instruments for various scientific and technological missions. These include communications satellites like Starlink; space stations such as the ISS; scientific satellites like the Hubble; Earth observation satellites from companies like Planet Labs, Umbra, and HawkEye 360; GPS; miniature CubeSats for education and research; and military/defense satellites.

Loading next visibility...
Identifier
60738, 2024-152U
Orbit
LEO
Last TLE update
4 hours ago
Origin
Manufacturer
SpaceX/Seattle
Mission
Operational Commercial Communications
Bus & Motor
STARLINK V2M, Unknown motor
Mass
730 kg wet, ~700 kg dry
Launch date (UTC)
2024-08-28 (10 months ago)
Launch vehicle
FALCON 9
Launch site
Air Force Eastern Test Range (AFETR)
Object type
Payload
Rocket body
Debris
Shape & HBR
Box + 2 Pan, 29 m
Radar Cross Section
36.964 m², Large (>1 m²)

Expand to show TLE details & history

TLE from 4 hours ago
0 STARLINK-32304
1 60738U 24152U   25186.57654128 -.00000347  00000-0  39744-6 0  9996
2 60738  53.1614 336.4657 0001123  85.2220 274.8909 15.30191981 48993
Epoch: 2025-07-05T13:50Z
TLE epoch observation values (Epoch: 2025-07-05T13:50:13.166Z)
Latitude
-0.00003°
Longitude
-154.90178°
Altitude
476.073 km
Speed
7.629 km/s
True Right ascension
22h 25m 51s
True Declination
0° 00' 00"
Sunlit
Object was in full shadow at epoch
Visualization orbit readout
Latitude
-51.2662°
Longitude
92.52485°
Altitude
493.75 km
Speed
7.617 km/s
Apparent Right ascension
16h 34m 27s
Apparent Declination
-48° 00' 34"
Sunlit
Object is in full shadow
Visualization observer readout
Local Sidereal Time
06:00:47
Azimuth
124.777° SE
Elevation
-72.567°
Doppler factor
1
Orbital elements
Apogee altitude
476.265 km
Perigee altitude
474.726 km
Semi-major axis
6,853.632 km
Eccentricity
0.00011
Inclination
53.1614°
RAAN
336.4657°
Arg. of periapsis
85.222°
True anomaly
Unknown
Mean anomaly
274.8909°
Eccentric anomaly
Unknown
Mean motion
3.82527 °/min
Orbital period
94.11 mins
BSTAR
3.9744e-7
Loading maneuver chart data...
Loading SW <> Apogee altitude chart data...
Loading historical data...
Loading historical data...
Loading historical data...
Loading historical data...
Loading historical data...
Loading historical data...
Loading historical data...

STARLINK-32304 Visibility forecast

Observer location: undefined°, undefined°

Span
Click to sort rows by Start time (UTC) header in descending order
Start Az.
Max El. time (UTC)
Max El. Az.
Max El.
End time (UTC)
End Az.
6 mins2025-07-05 19:00:18.781Z325.137° NNW2025-07-05 19:03:18.781Z23.399° NE29.947°2025-07-05 19:06:18.781Z95.798° ESE
5 mins2025-07-05 20:39:18.781Z277.044° WNW2025-07-05 20:41:18.781Z229.958° WSW25.249°2025-07-05 20:44:18.781Z170.172° S
5 mins2025-07-06 11:57:18.781Z181.748° SSW2025-07-06 11:59:18.781Z128.073° SE27.711°2025-07-06 12:02:18.781Z69.488° E
5 mins2025-07-06 13:35:18.781Z280.161° WNW2025-07-06 13:37:18.781Z337.477° NNW28.048°2025-07-06 13:40:18.781Z33.882° NE
|